Location: Llanfihangel-Ystrad
(52.1833°N, 4.1667°W)
Time: 09:28:49
(UTC+00:00)

Cosmos 1842 Rocket - Pass Details

Date: 17 February 2020
Orbit: 604 x 635 km, 82.5° (Epoch: 03 April)

Event Time Altitude Azimuth Distance (km) Brightness Sun altitude
Rises 05:21:13 0° 187° (S) 2,909 6.9 -20.2°
Reaches altitude 10° 05:23:26 10° 187° (S) 2,009 6.0 -19.9°
Maximum altitude 05:27:54 86° 99° (E) 644 3.6 -19.2°
Drops below altitude 10° 05:32:25 10° 12° (NNE) 2,034 6.4 -18.5°
Sets 05:34:41 0° 12° (NNE) 2,948 7.2 -18.2°
